Terminal Aerodrome Forecast
Issued by NWS

Home | Current Version | Previous Version | Graphics & Text | Print | Product List | Glossary On
Versions: 1 2 3 4 5 6 7 8 9 10 11 12 13 14 15 16 17 18 19 20 21
000
FTUS43 KABR 301700
TAFMBG
TAF
KMBG 301736Z 3018/3118 14011KT P6SM SKC
     FM302000 15012G20KT P6SM FEW250
     FM310600 13017KT P6SM OVC100
     FM311100 29012KT 4SM BR OVC007=

USA.gov is the U.S. government's official web portal to all federal, state and local government web resources and services.